This demonstration page uses our WeatherBlox Daily Observations layout. Learn more.

Left ArrowRight Arrow

Hourly Observations for November 16, 2019

Temp ( °F °C ) Dew Point ( °F °C ) Humidity (%) Winds ( mph kmh ) Pressure ( in mb ) Visibility ( mi km ) Precip ( " mm )
12:15 am 00:15 Clear 41 5 30 -1 66 66 N 9 15 30.27 1025 10 16.0934 0 0
12:35 am 00:35 Clear 41 5 30 -1 66 66 N 8 13 30.27 1025 10 16.0934 0 0
12:55 am 00:55 Clear 39 4 30 -1 70 70 N 10 17 30.28 1025 10 16.0934 0 0
1:15 am 01:15 Clear 39 4 30 -1 70 70 N 12 19 30.29 1026 10 16.0934 0 0
1:35 am 01:35 Clear 37 3 30 -1 75 75 N 10 17 30.29 1026 10 16.0934 0 0
1:55 am 01:55 Clear 37 3 30 -1 75 75 N 9 15 30.3 1026 10 16.0934 0 0
2:15 am 02:15 Clear 36 2 30 -1 81 81 N 8 13 30.3 1026 10 16.0934 0 0
2:35 am 02:35 Clear 36 2 30 -1 81 81 N 6 9 30.3 1026 10 16.0934 0 0
2:55 am 02:55 Clear 36 2 30 -1 81 81 N 7 11 30.31 1026 10 16.0934 0 0
3:15 am 03:15 Partly Cloudy 36 2 30 -1 81 81 N 6 9 30.31 1026 10 16.0934 0 0
3:35 am 03:35 Partly Cloudy 34 1 30 -1 87 87 N 6 9 30.3 1026 10 16.0934 0 0
3:55 am 03:55 Clear 34 1 30 -1 87 87 N 5 7 30.31 1026 10 16.0934 0 0
4:15 am 04:15 Clear 34 1 30 -1 87 87 N 6 9 30.32 1027 10 16.0934 0 0
4:35 am 04:35 Clear 34 1 30 -1 87 87 N 5 7 30.32 1027 10 16.0934 0 0
4:55 am 04:55 Clear 34 1 30 -1 87 87 NNE 7 11 30.33 1027 10 16.0934 0 0
5:15 am 05:15 Clear 36 2 30 -1 81 81 NNE 7 11 30.34 1027 10 16.0934 0 0
5:35 am 05:35 Clear 34 1 30 -1 87 87 NNE 7 11 30.35 1028 10 16.0934 0 0
5:55 am 05:55 Clear 34 1 30 -1 87 87 NNE 8 13 30.37 1028 10 16.0934 0 0
6:15 am 06:15 Clear 34 1 30 -1 87 87 NNE 7 11 30.37 1028 10 16.0934 0 0
6:35 am 06:35 Clear 34 1 28 -2 81 81 NNE 6 9 30.39 1029 10 16.0934 0 0
6:55 am 06:55 Sunny 34 1 28 -2 81 81 NNE 5 7 30.4 1029 10 16.0934 0 0
7:15 am 07:15 Sunny 34 1 28 -2 81 81 NNE 7 11 30.4 1029 10 16.0934 0 0
7:35 am 07:35 Sunny 34 1 28 -2 81 81 NNE 7 11 30.41 1030 10 16.0934 0 0
7:55 am 07:55 Sunny 34 1 28 -2 81 81 NNE 7 11 30.42 1030 10 16.0934 0 0
8:15 am 08:15 Sunny 36 2 28 -2 75 75 NNE 8 13 30.42 1030 10 16.0934 0 0
8:35 am 08:35 Sunny 36 2 28 -2 75 75 NNE 8 13 30.42 1030 10 16.0934 0 0
8:55 am 08:55 Sunny 37 3 28 -2 70 70 NNE 12 19 30.42 1030 10 16.0934 0 0
9:15 am 09:15 Sunny 37 3 28 -2 70 70 NNE 10 17 30.42 1030 10 16.0934 0 0
9:35 am 09:35 Sunny 37 3 28 -2 70 70 NNE 13 20 30.42 1030 10 16.0934 0 0
9:55 am 09:55 Sunny 39 4 28 -2 65 65 NNE 13 20 30.43 1030 10 16.0934 0 0
10:15 am 10:15 Sunny 41 5 28 -2 61 61 NE 9 15 30.42 1030 10 16.0934 0 0
10:35 am 10:35 Sunny 41 5 28 -2 61 61 NE 14 22 30.41 1030 10 16.0934 0 0
10:55 am 10:55 Sunny 41 5 27 -3 57 57 NNE 10 17 30.41 1030 10 16.0934 0 0
11:15 am 11:15 Sunny 43 6 27 -3 53 53 E 12 19 30.41 1030 10 16.0934 0 0
11:35 am 11:35 Sunny 43 6 25 -4 49 49 NE 9 15 30.4 1030 10 16.0934 0 0
11:55 am 11:55 Sunny 43 6 25 -4 49 49 NE 13 20 30.39 1029 10 16.0934 0 0
12:15 pm 12:15 Sunny 43 6 23 -5 46 46 NNE 8 13 30.38 1029 10 16.0934 0 0
12:35 pm 12:35 Sunny 43 6 23 -5 46 46 NE 6 9 30.37 1029 10 16.0934 0 0
12:55 pm 12:55 Sunny 43 6 23 -5 46 46 NE 17 28 30.36 1028 10 16.0934 0 0
1:15 pm 13:15 Sunny 45 7 23 -5 42 42 NE 9 15 30.36 1028 10 16.0934 0 0
1:35 pm 13:35 Sunny 45 7 21 -6 39 39 E 9 15 30.36 1028 10 16.0934 0 0
1:55 pm 13:55 Sunny 45 7 21 -6 39 39 NE 12 19 30.36 1028 10 16.0934 0 0
2:15 pm 14:15 Sunny 45 7 21 -6 39 39 ENE 9 15 30.35 1028 10 16.0934 0 0
2:35 pm 14:35 Sunny 45 7 21 -6 39 39 NNE 10 17 30.36 1028 10 16.0934 0 0
2:55 pm 14:55 Sunny 45 7 21 -6 39 39 E 9 15 30.36 1028 10 16.0934 0 0
3:15 pm 15:15 Sunny 45 7 21 -6 39 39 NE 8 13 30.36 1028 10 16.0934 0 0
3:35 pm 15:35 Sunny 45 7 19 -7 37 37 NE 13 20 30.36 1028 10 16.0934 0 0
3:55 pm 15:55 Sunny 43 6 19 -7 39 39 NE 12 19 30.36 1028 10 16.0934 0 0
4:15 pm 16:15 Sunny 43 6 18 -8 36 36 ENE 13 20 30.36 1028 10 16.0934 0 0
4:35 pm 16:35 Sunny 43 6 16 -9 34 34 NE 8 13 30.37 1029 10 16.0934 0 0
4:55 pm 16:55 Sunny 41 5 14 -10 33 33 NE 7 11 30.37 1029 10 16.0934 0 0
5:15 pm 17:15 Clear 41 5 14 -10 33 33 NE 6 9 30.38 1029 10 16.0934 0 0
5:35 pm 17:35 Clear 39 4 14 -10 36 36 ESE 3 6 30.4 1029 10 16.0934 0 0
5:55 pm 17:55 Clear 37 3 14 -10 38 38 E 3 6 30.4 1029 10 16.0934 0 0
6:15 pm 18:15 Clear 37 3 14 -10 38 38 E 3 6 30.41 1030 10 16.0934 0 0
6:35 pm 18:35 Clear 37 3 14 -10 38 38 Calm 30.41 1030 10 16.0934 0 0
6:55 pm 18:55 Clear 36 2 14 -10 41 41 NE 5 7 30.41 1030 10 16.0934 0 0
7:15 pm 19:15 Clear 36 2 14 -10 41 41 NE 6 9 30.4 1029 10 16.0934 0 0
7:35 pm 19:35 Clear 36 2 12 -11 38 38 NE 6 9 30.4 1029 10 16.0934 0 0
7:55 pm 19:55 Clear 36 2 12 -11 38 38 NE 6 9 30.4 1029 10 16.0934 0 0
8:15 pm 20:15 Clear 36 2 12 -11 38 38 NE 6 9 30.4 1029 10 16.0934 0 0
8:35 pm 20:35 Clear 34 1 12 -11 41 41 NE 8 13 30.41 1030 10 16.0934 0 0
8:55 pm 20:55 Partly Cloudy 34 1 10 -12 38 38 NE 7 11 30.4 1029 10 16.0934 0 0
9:15 pm 21:15 Mostly Cloudy 36 2 12 -11 38 38 NE 6 9 30.4 1029 10 16.0934 0 0
9:35 pm 21:35 Cloudy 36 2 12 -11 38 38 NE 5 7 30.41 1030 10 16.0934 0 0
9:55 pm 21:55 Cloudy 34 1 12 -11 41 41 NNE 5 7 30.41 1030 10 16.0934 0 0
10:15 pm 22:15 Cloudy 34 1 12 -11 41 41 NNE 5 7 30.4 1029 10 16.0934 0 0
10:35 pm 22:35 Cloudy 34 1 12 -11 41 41 NNE 7 11 30.4 1029 10 16.0934 0 0
10:55 pm 22:55 Cloudy 34 1 12 -11 41 41 NNE 5 7 30.4 1029 10 16.0934 0 0
11:15 pm 23:15 Cloudy 34 1 12 -11 41 41 NNE 6 9 30.4 1029 10 16.0934 0 0
11:35 pm 23:35 Cloudy 34 1 12 -11 41 41 NNE 5 7 30.39 1029 10 16.0934 0 0
11:55 pm 23:55 Cloudy 34 1 12 -11 41 41 NNE 3 6 30.4 1029 10 16.0934 0 0

Powered by AerisWeather